KO4ZGL-13 Weather Reports


Display with metric or nautical units.
time (UTC)temp
F
wind
direction
speed
MPH
gust
MPH
rain 1hr
in
rain 24hr
in
rain mn
in
humidity
%
barometer
mb
20260505201713 80 321 1.0 1.0 0.00 0.00 0.00 55 1016.6
20260505201211 80 333 4.0 5.0 0.00 0.00 0.00 52 1016.6
20260505200709 79 50 5.0 7.0 0.00 0.00 0.00 55 1016.5
20260505200205 81 40 5.0 8.0 0.00 0.00 0.00 54 1016.6
20260505195701 82 279 3.0 3.0 0.00 0.00 0.00 49 1016.7
20260505195158 82 44 5.0 7.0 0.00 0.00 0.00 51 1016.5
20260505194656 82 347 5.0 7.0 0.00 0.00 0.00 50 1016.8
20260505194152 81 11 1.0 2.0 0.00 0.00 0.00 52 1016.8
20260505193648 82 342 2.0 5.0 0.00 0.00 0.00 49 1016.9
20260505193145 81 329 1.0 1.0 0.00 0.00 0.00 53 1017.1
20260505192644 82 358 4.0 5.0 0.00 0.00 0.00 50 1017.2
20260505192141 81 315 0.0 1.0 0.00 0.00 0.00 50 1017.4
20260505191639 82 5 5.0 7.0 0.00 0.00 0.00 49 1017.4
20260505191137 81 37 4.0 6.0 0.00 0.00 0.00 50 1017.5
20260505190633 82 23 6.0 9.0 0.00 0.00 0.00 51 1017.6
20260505190127 81 316 1.0 1.0 0.00 0.00 0.00 51 1017.7
20260505185625 83 325 0.0 1.0 0.00 0.00 0.00 53 1017.8
20260505185121 82 333 3.0 5.0 0.00 0.00 0.00 48 1017.5
20260505184618 82 359 2.0 3.0 0.00 0.00 0.00 51 1017.6
20260505184114 81 261 3.0 5.0 0.00 0.00 0.00 50 1017.7
20260505183611 82 351 1.0 1.0 0.00 0.00 0.00 49 1017.6
20260505183109 81 321 1.0 1.0 0.00 0.00 0.00 52 1017.5
20260505182605 82 336 1.0 1.0 0.00 0.00 0.00 50 1017.5
20260505182102 81 322 3.0 5.0 0.00 0.00 0.00 51 1017.5
20260505181559 81 2 4.0 8.0 0.00 0.00 0.00 50 1017.3
20260505181056 82 273 1.0 2.0 0.00 0.00 0.00 50 1017.4
20260505180551 81 284 2.0 2.0 0.00 0.00 0.00 51 1017.4
20260505180050 81 316 1.0 2.0 0.00 0.00 0.00 53 1017.8
20260505175550 81 357 5.0 7.0 0.00 0.00 0.00 52 1017.4
20260505175047 81 325 1.0 1.0 0.00 0.00 0.00 54 1017.4
20260505174544 81 331 4.0 7.0 0.00 0.00 0.00 52 1017.7
20260505174040 80 331 1.0 1.0 0.00 0.00 0.00 52 1017.6
20260505173537 81 326 4.0 6.0 0.00 0.00 0.00 52 1017.7
20260505173033 82 357 2.0 2.0 0.00 0.00 0.00 53 1017.5
20260505172531 81 5 3.0 6.0 0.00 0.00 0.00 55 1017.5
20260505172027 81 311 0.0 1.0 0.00 0.00 0.00 54 1017.9
20260505171522 80 315 1.0 2.0 0.00 0.00 0.00 55 1018.1
20260505171020 80 4 1.0 2.0 0.00 0.00 0.00 54 1018.0
20260505170517 80 33 3.0 5.0 0.00 0.00 0.00 56 1018.0
20260505170013 81 355 1.0 2.0 0.00 0.00 0.00 53 1018.0
20260505165508 82 325 2.0 2.0 0.00 0.00 0.00 55 1018.0
20260505165004 80 315 0.0 1.0 0.00 0.00 0.00 58 1018.1
20260505164500 79 353 3.0 6.0 0.00 0.00 0.00 57 1018.4
20260505163958 79 357 3.0 6.0 0.00 0.00 0.00 58 1018.5
20260505163457 79 343 3.0 5.0 0.00 0.00 0.00 58 1018.6
20260505162956 79 309 3.0 3.0 0.00 0.00 0.00 57 1018.7
20260505162451 80 331 3.0 3.0 0.00 0.00 0.00 55 1018.6
20260505161948 79 320 1.0 2.0 0.00 0.00 0.00 58 1018.6
20260505161444 79 321 0.0 0.0 0.00 0.00 0.00 60 1018.6
20260505160942 79 17 2.0 3.0 0.00 0.00 0.00 59 1018.9
20260505160440 79 40 3.0 5.0 0.00 0.00 0.00 58 1018.9
20260505152910 77 339 0.0 1.0 0.00 0.00 0.00 63 1018.9
20260505152407 78 299 1.0 1.0 0.00 0.00 0.00 60 1018.9
20260505151902 77 337 3.0 3.0 0.00 0.00 0.00 61 1018.7
20260505151359 77 302 1.0 2.0 0.00 0.00 0.00 61 1018.8
20260505150855 76 321 0.0 1.0 0.00 0.00 0.00 62 1018.9
20260505150352 76 301 4.0 8.0 0.00 0.00 0.00 61 1018.8
20260505140317 73 319 1.0 2.0 0.00 0.00 0.00 70 1018.7
20260505130240 66 311 0.0 0.0 0.00 0.00 0.00 95 1018.6
20260505124731 60 313 0.0 0.0 0.00 0.00 0.00 98 1018.5
20260505124228 59 313 0.0 0.0 0.00 0.00 0.00 98 1018.6
20260505123723 58 317 0.0 0.0 0.00 0.00 0.00 98 1018.6
20260505123220 57 318 0.0 0.0 0.00 0.00 0.00 98 1018.6
20260505122717 57 318 0.0 0.0 0.00 0.00 0.00 98 1018.6
20260505122214 55 318 0.0 0.0 0.00 0.00 0.00 98 1018.5
20260505121710 54 318 0.0 0.0 0.00 0.00 0.00 98 1018.6
20260505121207 53 318 0.0 0.0 0.00 0.00 0.00 98 1018.9
20260505120704 53 318 0.0 0.0 0.00 0.00 0.00 98 1018.5
20260505120200 52 318 0.0 0.0 0.00 0.00 0.00 98 1018.8
20260505115653 52 319 0.0 0.0 0.00 0.00 0.00 98 1018.5
20260505115151 53 319 0.0 0.0 0.00 0.00 0.00 98 1018.4
20260505114648 53 319 0.0 0.0 0.00 0.00 0.00 98 1018.4
20260505114144 53 319 0.0 0.0 0.00 0.00 0.00 98 1018.4
20260505113641 51 319 0.0 0.0 0.00 0.00 0.00 98 1018.4
20260505113137 50 320 0.0 0.0 0.00 0.00 0.00 98 1018.4
20260505112633 50 319 0.0 0.0 0.00 0.00 0.00 98 1018.2
20260505112132 50 320 0.0 0.0 0.00 0.00 0.00 98 1018.3
20260505111626 50 321 0.0 0.0 0.00 0.00 0.00 98 1018.2
20260505111122 50 319 0.0 0.0 0.00 0.00 0.00 98 1018.0
20260505110618 50 319 0.0 0.0 0.00 0.00 0.00 98 1018.2
20260505110115 50 324 0.0 0.0 0.00 0.00 0.00 98 1017.9
20260505102051 50 321 0.0 0.0 0.00 0.00 0.00 98 1017.6
20260505101549 50 321 0.0 0.0 0.00 0.00 0.00 98 1017.5
20260505101045 50 319 0.0 0.0 0.00 0.00 0.00 98 1017.5
20260505100542 50 319 0.0 0.0 0.00 0.00 0.00 98 1017.4
20260505100039 50 319 0.0 0.0 0.00 0.00 0.00 98 1017.3
20260505095535 50 319 0.0 0.0 0.00 0.00 0.00 98 1017.2
20260505095032 50 319 0.0 0.0 0.00 0.00 0.00 98 1017.3
20260505094528 50 319 0.0 0.0 0.00 0.00 0.00 98 1017.3
20260505094025 50 319 0.0 0.0 0.00 0.00 0.00 98 1017.4
20260505093521 50 319 0.0 0.0 0.00 0.00 0.00 98 1017.3
20260505093019 50 319 0.0 0.0 0.00 0.00 0.00 98 1017.4
20260505092516 50 319 0.0 0.0 0.00 0.00 0.00 98 1017.1
20260505092014 51 319 0.0 0.0 0.00 0.00 0.00 98 1017.1
20260505091511 51 319 0.0 0.0 0.00 0.00 0.00 97 1017.1
20260505091009 51 319 0.0 0.0 0.00 0.00 0.00 97 1017.1
20260505090507 51 320 0.0 0.0 0.00 0.00 0.00 97 1016.9
20260505090004 51 320 0.0 0.0 0.00 0.00 0.00 97 1017.1
20260505085502 51 320 0.0 0.0 0.00 0.00 0.00 97 1017.2
20260505085000 51 320 0.0 0.0 0.00 0.00 0.00 97 1017.2
20260505084458 51 320 0.0 0.0 0.00 0.00 0.00 97 1016.9
20260505083955 51 320 0.0 0.0 0.00 0.00 0.00 97 1016.9
20260505083452 51 320 0.0 0.0 0.00 0.00 0.00 97 1016.9
20260505082949 51 320 0.0 0.0 0.00 0.00 0.00 97 1016.8
20260505082444 52 320 0.0 0.0 0.00 0.00 0.00 97 1017.0
20260505081942 52 320 0.0 0.0 0.00 0.00 0.00 97 1016.7
20260505081438 52 320 0.0 0.0 0.00 0.00 0.00 97 1016.7
20260505080935 52 320 0.0 0.0 0.00 0.00 0.00 97 1016.8
20260505080431 52 320 0.0 0.0 0.00 0.00 0.00 97 1016.7
20260505075926 52 320 0.0 0.0 0.00 0.00 0.00 97 1016.9
20260505075424 52 320 0.0 0.0 0.00 0.00 0.00 97 1016.9
20260505074921 52 320 0.0 0.0 0.00 0.00 0.00 97 1016.6
20260505074419 52 320 0.0 0.0 0.00 0.00 0.00 97 1016.6
20260505073915 52 320 0.0 0.0 0.00 0.00 0.00 97 1016.7
20260505073413 52 320 0.0 0.0 0.00 0.00 0.00 97 1016.7
20260505072910 52 320 0.0 0.0 0.00 0.00 0.00 96 1016.6
20260505072406 53 320 0.0 0.0 0.00 0.00 0.00 96 1016.6
20260505071902 53 321 0.0 0.0 0.00 0.00 0.00 96 1016.4
20260505071359 52 320 0.0 0.0 0.00 0.00 0.00 96 1016.5
20260505070857 52 320 0.0 0.0 0.00 0.00 0.00 96 1016.5
20260505070353 53 320 0.0 0.0 0.00 0.00 0.00 96 1016.7
20260505065848 53 321 0.0 0.0 0.00 0.00 0.00 96 1016.6
20260505065346 53 321 0.0 0.0 0.00 0.00 0.00 96 1016.6
20260505064842 53 321 0.0 0.0 0.00 0.00 0.00 96 1016.8
20260505064339 53 321 0.0 0.0 0.00 0.00 0.00 96 1016.8
20260505063838 53 321 0.0 0.0 0.00 0.00 0.00 96 1016.7
20260505063333 53 321 0.0 0.0 0.00 0.00 0.00 96 1016.9
20260505062830 53 321 0.0 0.0 0.00 0.00 0.00 96 1016.8
20260505062327 53 321 0.0 0.0 0.00 0.00 0.00 96 1017.2
20260505061824 53 321 0.0 0.0 0.00 0.00 0.00 95 1017.1
20260505061322 53 321 0.0 0.0 0.00 0.00 0.00 95 1017.1
20260505060820 53 321 0.0 0.0 0.00 0.00 0.00 95 1017.3
20260505060316 53 321 0.0 0.0 0.00 0.00 0.00 95 1017.4
20260505055812 54 321 0.0 0.0 0.00 0.00 0.00 95 1017.5
20260505055308 54 321 0.0 0.0 0.00 0.00 0.00 95 1017.4
20260505054806 54 321 0.0 0.0 0.00 0.00 0.00 95 1017.4
20260505054303 54 321 0.0 0.0 0.00 0.00 0.00 94 1017.6
20260505053801 54 321 0.0 0.0 0.00 0.00 0.00 94 1017.5
20260505053258 54 321 0.0 0.0 0.00 0.00 0.00 94 1017.7
20260505052755 54 321 0.0 0.0 0.00 0.00 0.00 94 1017.7
20260505052252 54 321 0.0 0.0 0.00 0.00 0.00 93 1017.6
20260505051749 54 321 0.0 0.0 0.00 0.00 0.00 93 1017.8
20260505051247 54 319 0.0 0.0 0.00 0.00 0.00 93 1018.0
20260505050744 54 319 0.0 0.0 0.00 0.00 0.00 92 1017.9
20260505050243 55 319 0.0 0.0 0.00 0.00 0.00 92 1017.8
20260505041712 56 319 0.0 0.0 0.00 0.00 0.00 90 1018.1
20260505041209 56 319 0.0 0.0 0.00 0.00 0.00 89 1017.9
20260505040707 56 319 0.0 0.0 0.00 0.00 0.00 89 1018.1
20260505040204 57 319 0.0 0.0 0.00 0.00 0.00 88 1018.0
20260505035701 57 319 0.0 0.0 0.00 0.00 0.00 88 1017.9
20260505035156 57 319 0.0 0.0 0.00 0.00 0.00 88 1018.2
20260505034653 57 318 0.0 0.0 0.00 0.00 0.00 87 1017.8
20260505034150 57 318 0.0 0.0 0.00 0.00 0.00 87 1018.1
20260505033646 57 318 0.0 0.0 0.00 0.00 0.00 86 1017.8
20260505033145 58 319 0.0 0.0 0.00 0.00 0.00 86 1018.0
20260505032642 58 319 0.0 0.0 0.00 0.00 0.00 85 1018.2
20260505032133 58 319 0.0 0.0 0.00 0.00 0.00 84 1018.1
20260505031630 58 319 0.0 0.0 0.00 0.00 0.00 83 1018.1
20260505031126 58 319 0.0 0.0 0.00 0.00 0.00 83 1018.0
20260505030624 59 319 0.0 0.0 0.00 0.00 0.00 82 1018.1
20260505030120 59 320 0.0 0.0 0.00 0.00 0.00 82 1017.9
20260505025615 59 320 0.0 0.0 0.00 0.00 0.00 82 1018.1
20260505025114 59 320 0.0 0.0 0.00 0.00 0.00 82 1018.0
20260505024611 59 320 0.0 0.0 0.00 0.00 0.00 81 1017.9
20260505024109 59 320 0.0 0.0 0.00 0.00 0.00 80 1017.9
20260505023606 60 319 0.0 0.0 0.00 0.00 0.00 80 1017.9
20260505023103 60 320 0.0 0.0 0.00 0.00 0.00 79 1017.7
20260505022600 60 319 0.0 0.0 0.00 0.00 0.00 78 1017.8
20260505022057 60 320 0.0 0.0 0.00 0.00 0.00 78 1018.0
20260505021554 61 320 0.0 0.0 0.00 0.00 0.00 77 1017.8
20260505021051 61 320 0.0 0.0 0.00 0.00 0.00 76 1017.8
20260505020550 62 320 0.0 0.0 0.00 0.00 0.00 75 1017.8
20260505020048 62 320 0.0 0.0 0.00 0.00 0.00 74 1017.7
20260505015545 62 320 0.0 0.0 0.00 0.00 0.00 74 1017.6
20260505015041 62 324 0.0 0.0 0.00 0.00 0.00 73 1017.8
20260505014538 63 324 0.0 0.0 0.00 0.00 0.00 72 1017.5
20260505014036 63 324 0.0 0.0 0.00 0.00 0.00 72 1017.5
20260505013532 63 321 0.0 0.0 0.00 0.00 0.00 71 1017.8
20260505013030 63 318 0.0 0.0 0.00 0.00 0.00 70 1017.6
20260505012528 64 326 0.0 0.0 0.00 0.00 0.00 70 1017.4
20260505012025 64 322 0.0 0.0 0.00 0.00 0.00 69 1017.5
20260505011520 64 327 0.0 0.0 0.00 0.00 0.00 68 1017.6
20260505011018 64 335 1.0 1.0 0.00 0.00 0.00 68 1017.2
20260505010513 65 320 0.0 0.0 0.00 0.00 0.00 67 1017.3
20260505010010 65 325 1.0 2.0 0.00 0.00 0.00 65 1017.3
20260505005506 66 314 1.0 2.0 0.00 0.00 0.00 64 1017.3
20260505005004 66 325 0.0 0.0 0.00 0.00 0.00 64 1017.0
20260505004501 66 320 1.0 1.0 0.00 0.00 0.00 64 1017.3
20260505003958 66 326 1.0 2.0 0.00 0.00 0.00 63 1017.2
20260505003455 67 322 0.0 1.0 0.00 0.00 0.00 62 1017.1
20260505002950 67 6 2.0 2.0 0.00 0.00 0.00 62 1017.2
20260505002447 67 329 1.0 2.0 0.00 0.00 0.00 61 1017.1
20260505001945 68 326 0.0 1.0 0.00 0.00 0.00 62 1017.1
20260505001442 68 325 0.0 1.0 0.00 0.00 0.00 62 1017.0
20260505000939 68 327 2.0 2.0 0.00 0.00 0.00 61 1017.1
20260505000437 68 2 2.0 3.0 0.00 0.00 0.00 61 1017.1
20260504235934 68 323 0.0 0.0 0.00 0.00 0.00 61 1016.9
20260504235431 68 344 2.0 2.0 0.00 0.00 0.00 61 1016.9
20260504234927 69 323 1.0 1.0 0.00 0.00 0.00 61 1017.0
20260504234425 69 332 2.0 2.0 0.00 0.00 0.00 60 1017.0
20260504233921 69 344 1.0 1.0 0.00 0.00 0.00 61 1016.9
20260504233417 70 8 3.0 3.0 0.00 0.00 0.00 61 1017.0
20260504232914 70 304 0.0 0.0 0.00 0.00 0.00 60 1016.8
20260504232411 70 325 4.0 6.0 0.00 0.00 0.00 59 1016.8
20260504231908 71 354 4.0 6.0 0.00 0.00 0.00 59 1016.9
20260504231404 71 3 3.0 3.0 0.00 0.00 0.00 59 1016.8
20260504230901 71 321 2.0 3.0 0.00 0.00 0.00 58 1016.8
20260504230358 71 341 4.0 5.0 0.00 0.00 0.00 58 1016.6
20260504225857 71 330 2.0 2.0 0.00 0.00 0.00 58 1016.8
20260504225353 71 324 2.0 2.0 0.00 0.00 0.00 58 1016.6
20260504224851 72 349 1.0 2.0 0.00 0.00 0.00 58 1016.8
20260504224347 72 332 1.0 1.0 0.00 0.00 0.00 57 1016.6
20260504223844 72 338 3.0 5.0 0.00 0.00 0.00 55 1016.8
20260504223339 73 329 3.0 3.0 0.00 0.00 0.00 55 1016.9
20260504222836 73 354 3.0 5.0 0.00 0.00 0.00 55 1016.8
20260504222333 73 314 2.0 3.0 0.00 0.00 0.00 55 1016.8
20260504221832 73 44 3.0 5.0 0.00 0.00 0.00 54 1016.6
20260504221328 74 334 4.0 5.0 0.00 0.00 0.00 54 1016.7
20260504220825 74 6 5.0 7.0 0.00 0.00 0.00 53 1016.6
20260504220322 74 346 5.0 8.0 0.00 0.00 0.00 53 1016.7
20260504215819 74 257 3.0 3.0 0.00 0.00 0.00 53 1016.5
20260504215315 75 2 7.0 8.0 0.00 0.00 0.00 52 1016.5
20260504214811 76 326 1.0 1.0 0.00 0.00 0.00 51 1016.4
20260504214309 75 319 3.0 5.0 0.00 0.00 0.00 52 1016.5
20260504213805 75 23 5.0 6.0 0.00 0.00 0.00 52 1016.3
20260504213301 75 343 1.0 1.0 0.00 0.00 0.00 52 1016.4
20260504212759 75 14 7.0 9.0 0.00 0.00 0.00 51 1016.2
20260504212255 76 307 5.0 7.0 0.00 0.00 0.00 51 1016.3
20260504211752 76 350 5.0 7.0 0.00 0.00 0.00 50 1016.4
20260504211248 77 13 5.0 7.0 0.00 0.00 0.00 49 1016.1
20260504210746 77 320 2.0 2.0 0.00 0.00 0.00 50 1016.3
20260504210243 78 334 3.0 5.0 0.00 0.00 0.00 49 1016.2
20260504205740 78 30 2.0 5.0 0.00 0.00 0.00 49 1016.3
20260504205238 79 321 1.0 2.0 0.00 0.00 0.00 48 1016.1
20260504204735 80 271 2.0 2.0 0.00 0.00 0.00 49 1016.2
20260504204233 80 36 3.0 3.0 0.00 0.00 0.00 45 1015.7
20260504203733 81 321 2.0 3.0 0.00 0.00 0.00 43 1016.0
20260504203230 81 250 2.0 2.0 0.00 0.00 0.00 42 1016.3
20260504202729 81 335 3.0 3.0 0.00 0.00 0.00 40 1016.1
20260504202227 81 333 1.0 1.0 0.00 0.00 0.00 41 1016.2